sat.trackr.live / text

‹ back to catalog

HULIANWANG DIGUI-06

NORAD 62328 · 2024-240F

PAYLOAD ACTIVE UNKNOWN

§ Identity

Operator
Country
PRC
Launch date
2024-12-16
Launch site
WSC
Launch vehicle
Mass (kg)
RCS (m²)

External: N2YO · Heavens-Above · Gunter

§ Orbital elements

Epoch: 2026-05-25T03:28:33.441600Z

Period
108.73 min
Inclination
86.4982°
Eccentricity
0.0001340
Mean motion
13.24405961 rev/d
Perigee alt
1,166.9 km
Apogee alt
1,168.9 km
Semi-major
7,546.1 km
B*
1.1727e-4
RAAN
350.8903°
Arg perigee
80.0917°
Mean anomaly
280.0368°
Rev number
6,959

§ Raw data

HULIANWANG DIGUI-061 62328U 24240F   26145.14483150  .00000065  00000+0  11727-3 0  99982 62328  86.4982 350.8903 0001340  80.0917 280.0368 13.24405961 69592

JSON: /api/v1/satellites/62328 · /tle

For live sub-satellite position, see the globe view (requires WebGL).

§ Visibility from observer

Set your observer location to see the next 7 days of passes ≥ 10°. The values pass through the URL so the page stays shareable.

No JS? Fill the form by hand. The geolocation button needs JavaScript.